User: anonymous   Login
Location: Beekmeers
(50.8953°N, 3.6968°E)
Time: 10:05:58
(UTC+00:00)
Language:

Cosmos 1703 Rocket - Orbit

View from above orbital plane
View from above orbital plane
View from above satellite
View from above satellite

Ground track
Ground track

The orbit data is extracted from the following two-line orbital elements,

1 16263U 85108B   24197.79414764  .00000902  00000-0  10426-3 0  9992
2 16263  82.5017 207.6159 0021180 107.8176  64.7668 14.84334688 66597
Epoch (UTC): 15 July 2024 19:03:34
Eccentricity: 0.0021180
inclination: 82.5017°
perigee height: 601 km
apogee height: 630 km
right ascension of ascending node: 207.6159°
argument of perigee: 107.8176°
revolutions per day: 14.84334688
mean anomaly at epoch: 64.7668°
orbit number at epoch: 6659

The dashed part of the orbit path shows where the satellite is in the earth's shadow,  

DLR